• In Hungary
  • List of Countries
  • For 7 days
  • Water Temperature
  • Satellite Maps
  • Weather Map
  • News
  • Weather Widgets
  • user-avatar
    Login

    Hourly Weather Hobart

    Today, 23 September, Sunday

    Time Temperature Precipitation Wind Pressure Humidity
    00:00 +3°C° 0 mm 4 mps 753 mmHg 92%
    01:00 +1°C° 0 mm 4 mps 754 mmHg 91%
    02:00 +1°C° 0 mm 4 mps 754 mmHg 90%
    03:00 +1°C° 0 mm 5 mps 754 mmHg 89%
    04:00 +1°C° 0 mm 4 mps 753 mmHg 89%
    05:00 +3°C° 0 mm 4 mps 753 mmHg 88%
    06:00 +3°C° 0 mm 5 mps 754 mmHg 86%
    07:00 +3°C° 0 mm 6 mps 754 mmHg 85%
    08:00 +4°C° 0.1 mm 6 mps 755 mmHg 78%
    09:00 +5°C° 0.1 mm 7 mps 756 mmHg 71%
    10:00 +8°C° 0 mm 6 mps 756 mmHg 64%
    11:00 +8°C° 0.1 mm 6 mps 756 mmHg 61%
    12:00 +8°C° 0.1 mm 6 mps 757 mmHg 58%
    13:00 +8°C° 0.1 mm 7 mps 757 mmHg 54%
    14:00 +7°C° 0 mm 6 mps 757 mmHg 54%
    15:00 +7°C° 0 mm 6 mps 758 mmHg 53%
    16:00 +7°C° 0 mm 6 mps 758 mmHg 52%
    17:00 +5°C° 0 mm 5 mps 759 mmHg 58%
    18:00 +3°C° 0 mm 5 mps 759 mmHg 64%
    19:00 +1°C° 0 mm 4 mps 760 mmHg 70%
    20:00 0°C° 0 mm 4 mps 760 mmHg 75%
    21:00 +1°C° 0 mm 3 mps 761 mmHg 80%
    22:00 0°C° 0 mm 3 mps 761 mmHg 84%
    23:00 -1°C° 0 mm 3 mps 761 mmHg 85%

    Tomorrow, 24 September, Monday

    Time Temperature Precipitation Wind Pressure Humidity
    00:00 -1°C° 0 mm 3 mps 761 mmHg 86%
    01:00 -1°C° 0 mm 3 mps 761 mmHg 87%
    02:00 -1°C° 0 mm 3 mps 761 mmHg 89%
    03:00 -2°C° 0 mm 3 mps 761 mmHg 90%
    04:00 -2°C° 0 mm 3 mps 761 mmHg 91%
    05:00 -1°C° 0 mm 3 mps 761 mmHg 87%
    06:00 -1°C° 0 mm 3 mps 761 mmHg 83%
    07:00 0°C° 0 mm 3 mps 761 mmHg 79%
    08:00 +3°C° 0 mm 3 mps 761 mmHg 68%
    09:00 +7°C° 0 mm 3 mps 761 mmHg 58%
    10:00 +10°C° 0 mm 3 mps 761 mmHg 47%
    11:00 +10°C° 0 mm 3 mps 761 mmHg 45%
    12:00 +11°C° 0 mm 3 mps 760 mmHg 44%
    13:00 +12°C° 0 mm 3 mps 760 mmHg 42%
    14:00 +12°C° 0 mm 4 mps 759 mmHg 44%
    15:00 +11°C° 0 mm 4 mps 759 mmHg 46%
    16:00 +11°C° 0 mm 4 mps 759 mmHg 48%
    17:00 +8°C° 0 mm 4 mps 759 mmHg 58%
    18:00 +6°C° 0 mm 4 mps 759 mmHg 68%
    19:00 +3°C° 0 mm 3 mps 759 mmHg 79%
    20:00 +3°C° 0 mm 3 mps 759 mmHg 84%
    21:00 +2°C° 0 mm 3 mps 759 mmHg 89%
    22:00 +1°C° 0 mm 3 mps 759 mmHg 94%
    23:00 +1°C° 0 mm 3 mps 759 mmHg 95%

    Day after tomorrow, 25 September, Tuesday

    Time Temperature Precipitation Wind Pressure Humidity
    00:00 0°C° 0 mm 3 mps 759 mmHg 96%
    01:00 0°C° 0 mm 3 mps 758 mmHg 97%
    02:00 +1°C° 0 mm 3 mps 758 mmHg 97%
    03:00 +1°C° 0 mm 3 mps 758 mmHg 97%
    04:00 +1°C° 0 mm 3 mps 757 mmHg 97%
    05:00 +1°C° 0 mm 3 mps 758 mmHg 95%
    06:00 +2°C° 0 mm 3 mps 758 mmHg 93%
    07:00 +2°C° 0 mm 3 mps 758 mmHg 91%
    08:00 +4°C° 0 mm 3 mps 758 mmHg 79%
    09:00 +8°C° 0 mm 3 mps 758 mmHg 67%
    10:00 +10°C° 0 mm 3 mps 758 mmHg 55%
    11:00 +10°C° 0 mm 3 mps 758 mmHg 56%
    12:00 +10°C° 0 mm 3 mps 757 mmHg 57%
    13:00 +10°C° 0 mm 3 mps 757 mmHg 57%
    14:00 +10°C° 0 mm 3 mps 757 mmHg 58%
    15:00 +10°C° 0 mm 3 mps 757 mmHg 58%
    16:00 +10°C° 0 mm 3 mps 756 mmHg 58%
    17:00 +8°C° 0 mm 3 mps 756 mmHg 68%
    18:00 +5°C° 0 mm 3 mps 757 mmHg 77%
    19:00 +3°C° 0 mm 3 mps 757 mmHg 87%
    20:00 +3°C° 0 mm 2 mps 757 mmHg 89%
    21:00 +3°C° 0 mm 2 mps 757 mmHg 91%
    22:00 +2°C° 0 mm 2 mps 757 mmHg 93%
    23:00 +2°C° 0 mm 2 mps 757 mmHg 93%

    26 September, Wednesday

    Time Temperature Precipitation Wind Pressure Humidity
    00:00 +2°C° 0 mm 2 mps 757 mmHg 93%
    01:00 +2°C° 0 mm 2 mps 757 mmHg 93%
    02:00 +1°C° 0 mm 2 mps 756 mmHg 94%
    03:00 +2°C° 0 mm 1 mps 756 mmHg 95%
    04:00 +2°C° 0 mm 1 mps 756 mmHg 95%
    05:00 +2°C° 0 mm 1 mps 756 mmHg 92%
    06:00 +3°C° 0 mm 1 mps 756 mmHg 89%
    07:00 +4°C° 0 mm 1 mps 756 mmHg 86%
    08:00 +7°C° 0 mm 1 mps 755 mmHg 73%
    09:00 +10°C° 0 mm 1 mps 755 mmHg 60%
    10:00 +14°C° 0 mm 1 mps 755 mmHg 47%
    11:00 +15°C° 0 mm 2 mps 754 mmHg 43%
    12:00 +17°C° 0 mm 2 mps 754 mmHg 38%
    13:00 +18°C° 0 mm 2 mps 753 mmHg 34%
    14:00 +17°C° 0 mm 3 mps 752 mmHg 36%
    15:00 +17°C° 0 mm 3 mps 752 mmHg 38%
    16:00 +15°C° 0 mm 4 mps 751 mmHg 41%
    17:00 +12°C° 0 mm 4 mps 751 mmHg 55%
    18:00 +10°C° 0 mm 3 mps 751 mmHg 69%
    19:00 +7°C° 0 mm 3 mps 751 mmHg 83%
    20:00 +5°C° 0 mm 3 mps 751 mmHg 84%
    21:00 +5°C° 0 mm 3 mps 750 mmHg 84%
    22:00 +4°C° 0 mm 3 mps 750 mmHg 85%
    23:00 +4°C° 0 mm 3 mps 749 mmHg 85%

    27 September, Thursday

    Time Temperature Precipitation Wind Pressure Humidity
    00:00 +4°C° 0 mm 4 mps 749 mmHg 84%
    01:00 +4°C° 0 mm 4 mps 748 mmHg 84%
    02:00 +4°C° 0 mm 4 mps 747 mmHg 83%
    03:00 +4°C° 0 mm 4 mps 746 mmHg 82%
    04:00 +5°C° 0 mm 4 mps 746 mmHg 82%
    05:00 +5°C° 0.5 mm 4 mps 745 mmHg 86%
    06:00 +5°C° 0.5 mm 4 mps 745 mmHg 91%
    07:00 +5°C° 0.5 mm 4 mps 744 mmHg 96%
    08:00 +7°C° 0.1 mm 4 mps 743 mmHg 91%
    09:00 +9°C° 0.1 mm 5 mps 742 mmHg 86%
    10:00 +12°C° 0.1 mm 5 mps 742 mmHg 81%
    11:00 +13°C° 0.4 mm 5 mps 741 mmHg 80%
    12:00 +13°C° 0.4 mm 5 mps 740 mmHg 79%
    13:00 +14°C° 0.4 mm 5 mps 739 mmHg 77%
    14:00 +14°C° 0.2 mm 5 mps 739 mmHg 74%
    15:00 +14°C° 0.2 mm 5 mps 738 mmHg 71%
    16:00 +14°C° 0.2 mm 5 mps 738 mmHg 69%
    17:00 +13°C° 0.1 mm 5 mps 738 mmHg 74%
    18:00 +11°C° 0.1 mm 4 mps 738 mmHg 79%
    19:00 +10°C° 0.1 mm 4 mps 739 mmHg 84%
    20:00 +8°C° 0.1 mm 4 mps 739 mmHg 86%
    21:00 +8°C° 0.1 mm 4 mps 739 mmHg 87%
    22:00 +7°C° 0.1 mm 4 mps 739 mmHg 89%
    23:00 +6°C° 0 mm 4 mps 739 mmHg 89%

    28 September, Friday

    Time Temperature Precipitation Wind Pressure Humidity
    00:00 +6°C° 0 mm 4 mps 739 mmHg 90%
    01:00 +5°C° 0 mm 4 mps 739 mmHg 90%
    02:00 +5°C° 0 mm 4 mps 739 mmHg 90%
    03:00 +5°C° 0 mm 4 mps 739 mmHg 90%
    04:00 +5°C° 0 mm 4 mps 739 mmHg 90%
    05:00 +5°C° 0 mm 4 mps 739 mmHg 89%
    06:00 +5°C° 0 mm 4 mps 740 mmHg 88%
    07:00 +5°C° 0 mm 4 mps 740 mmHg 86%
    08:00 +6°C° 0 mm 4 mps 740 mmHg 74%
    09:00 +8°C° 0 mm 5 mps 740 mmHg 62%
    10:00 +9°C° 0 mm 5 mps 741 mmHg 50%
    11:00 +10°C° 0 mm 5 mps 741 mmHg 49%
    12:00 +10°C° 0 mm 5 mps 741 mmHg 48%
    13:00 +11°C° 0 mm 4 mps 741 mmHg 47%
    14:00 +11°C° 0.1 mm 4 mps 741 mmHg 50%
    15:00 +10°C° 0.1 mm 4 mps 741 mmHg 53%
    16:00 +8°C° 0.1 mm 4 mps 741 mmHg 56%
    17:00 +8°C° 0.1 mm 3 mps 741 mmHg 63%
    18:00 +5°C° 0.1 mm 3 mps 742 mmHg 71%
    19:00 +3°C° 0.1 mm 3 mps 742 mmHg 79%
    20:00 +3°C° 0.1 mm 3 mps 743 mmHg 83%
    21:00 +3°C° 0.1 mm 2 mps 743 mmHg 86%
    22:00 +3°C° 0.1 mm 2 mps 743 mmHg 90%
    23:00 +2°C° 0 mm 2 mps 743 mmHg 92%
    Show more